Location: Napier
(39.4830°S, 176.9170°E)
Time: 13:15:12
(UTC+12:00)

AQUARIUS - Pass Details

Date: 15 August 2020
Orbit: 650 x 652 km, 98.0° (Epoch: 23 September)

Event Time Altitude Azimuth Distance (km) Brightness Sun altitude
Rises 18:29:42 0° 166° (SSE) 3,012 7.4 -11.2°
Reaches altitude 10° 18:31:57 10° 165° (SSE) 2,093 6.5 -11.7°
Maximum altitude 18:36:31 78° 78° (ENE) 681 4.1 -12.5°
Drops below altitude 10° 18:41:02 10° 351° (N) 2,064 6.9 -13.4°
Sets 18:43:14 0° 349° (N) 2,967 7.8 -13.8°
